Location: Unspecified
(49.2170°N, 0.0000°E)
Time: 13:50:54
(UTC+00:00)

Vanguard 1 - Pass Details

Date: 20 June 2021
Orbit: 651 x 3832 km, 34.2° (Epoch: 23 July)

Event Time Altitude Azimuth Distance (km) Brightness Sun altitude
Rises 22:04:52 0° 243° (WSW) 7,959 14.7 -12.8°
Reaches altitude 10° 22:10:41 10° 239° (WSW) 6,918 14.3 -13.2°
Maximum altitude 22:31:19 47° 175° (S) 3,787 12.6 -14.6°
Drops below altitude 10° 22:44:59 10° 108° (ESE) 4,742 13.2 -15.4°
Sets 22:48:07 0° 102° (ESE) 5,386 13.6 -15.5°
